Dewpoint
54 41 34 26 22 18 12 12 12 16 21 32 37 39 37 41 43 45 61 65 65 68 67 68 70 71 71 72 72 72 73 72 72 72 71 71 71 71 70 69 68 67 65 63 61 60 60 60 59
36 31 28 25 21 12 12 12 14 15 28 39 35 39 41 40 48 55 60 64 65 68 67 67 70 71 71 71 71 71 71 72 71 71 71 71 70 69 68 67 66 63 62 61 60 60 59 59 57
43 27 26 23 20 15 12 14 14 18 26 34 29 35 37 37 50 52 61 65 66 67 67 68 70 70 70 71 71 71 71 71 71 71 71 70 69 68 66 64 64 62 61 60 60 59 59 57 56
28 25 25 21 18 16 15 16 17 20 19 20 20 25 31 44 50 56 63 64 66 67 67 69 69 70 70 70 70 70 70 70 70 70 70 69 67 66 64 64 63 61 61 60 59 58 57 56 54
26 25 22 20 19 17 17 18 18 18 17 18 19 22 27 52 55 60 63 64 65 67 69 68 68 69 70 70 70 70 70 70 70 69 69 67 65 63 62 64 63 61 60 59 58 57 56 55 54
26 26 23 19 18 17 17 20 20 19 19 18 18 22 30 53 55 61 63 64 66 69 69 68 69 69 69 70 70 69 69 69 68 68 67 65 63 63 62 62 62 59 59 58 57 56 55 54 53
28 26 23 21 19 19 20 22 23 23 22 18 19 29 42 52 55 62 64 65 68 70 70 69 68 69 69 68 68 67 67 67 66 65 65 64 63 62 62 61 59 58 57 57 57 55 54 53 52
30 27 24 23 20 19 19 22 22 21 21 24 30 30 36 51 59 62 64 67 68 69 70 69 69 68 68 67 66 66 66 65 64 64 63 62 61 61 62 59 58 57 56 56 55 54 52 51 50
31 28 24 24 22 21 20 21 22 23 23 26 29 36 44 54 61 62 64 66 68 68 69 69 68 67 67 66 65 65 64 64 63 62 62 60 55 57 58 57 57 55 54 54 54 53 51 50 48
32 31 28 27 25 23 23 22 22 24 26 26 28 34 49 54 59 60 61 63 65 66 67 68 68 67 66 64 64 63 61 60 59 58 58 54 56 54 54 55 55 53 52 52 52 50 50 50 40
34 32 31 28 27 27 26 25 25 25 26 28 27 28 47 51 57 58 59 61 63 65 66 66 66 66 65 64 63 61 60 58 57 57 57 57 54 53 53 52 50 50 50 42 43 45 42 39 39
33 32 32 31 29 28 27 27 26 27 29 30 30 30 41 48 52 55 57 58 62 64 64 66 65 65 64 63 62 62 59 57 55 55 59 57 52 52 51 47 45 46 44 43 42 40 45 46 46
36 34 34 33 32 29 29 28 28 29 30 31 30 31 30 35 47 50 53 56 60 62 64 65 65 64 63 63 61 62 60 56 55 55 55 53 50 52 49 45 42 41 41 43 41 43 44 45 45
40 38 36 34 34 33 31 31 32 32 31 29 29 29 29 31 35 43 48 53 58 61 63 64 64 64 63 62 62 61 60 57 54 52 52 55 50 51 45 44 41 40 40 40 40 41 43 43 43
38 37 36 35 35 34 34 32 32 34 34 33 32 32 31 32 32 35 43 50 56 60 62 62 63 63 63 62 61 60 57 54 51 49 56 53 51 51 49 44 41 40 41 43 41 43 43 42 41
39 38 34 34 34 33 33 31 32 33 31 31 32 31 31 31 30 32 38 46 52 57 61 62 60 61 62 61 59 58 55 53 48 48 51 53 50 50 50 43 42 42 43 39 40 40 41 40 40
39 35 32 31 32 32 31 30 31 31 28 28 30 30 30 32 32 34 37 43 50 57 61 60 61 61 61 61 58 58 57 51 48 47 48 51 49 49 47 43 43 46 40 39 39 40 42 40 39
34 32 31 30 30 29 29 29 31 31 30 31 30 30 31 31 31 35 40 44 48 54 60 59 59 60 60 59 56 54 51 51 49 47 47 51 49 49 47 43 46 44 38 38 39 44 43 41 37
35 32 29 28 27 29 29 29 29 31 30 30 31 32 32 34 34 35 41 46 49 55 60 59 59 59 58 55 53 52 50 49 47 45 49 51 49 50 49 43 45 43 40 41 46 46 44 38 39
36 34 33 32 30 31 31 30 30 30 32 32 31 32 33 35 34 35 37 45 52 56 60 58 58 58 57 55 54 52 50 48 45 45 47 49 49 50 46 46 44 44 41 44 46 46 42 39 41
35 35 34 33 32 33 32 31 31 31 32 32 33 33 32 34 36 36 37 42 52 55 60 58 58 57 57 56 53 52 50 49 46 45 45 48 48 48 47 46 44 44 43 43 46 45 45 39 41
34 35 34 34 33 31 32 29 32 31 29 29 30 32 34 34 36 36 36 38 49 55 59 58 58 57 56 56 53 52 48 45 44 44 44 45 46 46 44 45 45 45 42 44 45 44 43 43 39
35 37 35 34 34 34 32 30 30 29 28 29 30 31 34 34 36 36 36 37 44 53 57 59 58 58 56 55 55 52 50 48 46 45 46 46 46 46 42 44 44 44 42 43 44 44 43 41 38
37 37 37 38 36 33 33 30 29 28 30 30 31 32 34 37 40 41 41 40 42 50 56 58 58 57 56 56 55 53 52 48 45 44 44 43 44 43 43 41 43 41 40 42 40 41 40 38 39
37 36 34 34 34 32 31 30 31 32 30 30 32 36 39 40 41 41 40 40 42 50 55 57 57 56 56 55 55 53 52 51 49 46 44 43 42 42 43 42 43 40 41 41 38 40 40 38 38
35 35 34 27 29 29 30 29 28 31 32 33 34 38 39 40 42 43 43 42 41 48 53 56 55 55 55 54 53 53 51 48 47 46 45 44 42 41 43 42 40 39 40 38 39 38 38 40 39
36 33 35 33 32 30 31 30 30 29 31 36 36 38 39 39 41 43 45 47 47 49 53 55 55 54 54 53 53 51 50 48 46 46 48 46 44 40 43 41 39 39 39 38 38 35 35 39 39
35 34 34 35 31 30 30 27 30 29 31 37 38 38 39 40 41 43 45 47 48 51 52 54 54 53 53 52 51 50 48 48 47 45 44 43 43 42 42 40 38 38 37 36 37 36 37 37 36
38 37 35 38 37 34 30 33 33 32 36 38 38 39 40 41 42 43 44 46 47 50 51 54 52 51 52 51 50 48 48 47 46 44 43 42 41 42 40 37 37 35 35 36 35 34 35 34 34
37 37 36 28 29 35 38 34 35 38 36 38 38 38 40 39 41 42 44 45 47 48 49 50 52 52 52 50 49 48 47 45 44 43 41 41 39 40 38 35 34 34 34 35 35 32 33 34 32
Lifted_Index
9 8 8 7 5 4 2 1 1 2 3 2 1 1 0 -1 -2 -4 -4 -4 -5 -5 -4 -4 -4 -4 -5 -5 -5 -5 -6 -6 -6 -6 -6 -5 -5 -4 -4 -4 -3 -2 -1 0 1 2 3 3 4
8 8 7 6 5 3 1 0 1 2 3 3 2 1 1 -0 -2 -3 -4 -4 -5 -5 -5 -4 -4 -4 -5 -5 -5 -5 -5 -6 -6 -6 -5 -5 -4 -4 -3 -3 -2 -1 0 1 2 2 3 4 4
8 7 6 5 4 2 0 0 1 3 4 4 3 3 2 0 -1 -3 -4 -5 -5 -5 -5 -4 -4 -4 -4 -5 -5 -5 -5 -5 -5 -5 -5 -5 -4 -3 -2 -2 -0 1 1 2 2 3 4 5 6
7 7 6 5 3 1 0 1 2 4 5 5 5 4 2 0 -2 -3 -4 -5 -6 -5 -5 -4 -4 -4 -4 -4 -4 -4 -4 -4 -4 -4 -4 -4 -3 -2 -1 -0 1 1 2 3 3 4 5 6 7
7 6 5 4 3 1 1 1 3 5 5 6 5 5 3 -0 -2 -4 -5 -5 -6 -6 -5 -4 -4 -3 -3 -3 -3 -3 -3 -3 -4 -4 -3 -2 -2 -1 0 1 1 2 3 4 5 6 7 7 8
6 6 5 4 2 1 1 2 3 5 5 6 5 4 2 -1 -2 -3 -4 -5 -6 -6 -5 -4 -3 -3 -3 -3 -3 -3 -3 -3 -3 -2 -2 -1 -1 0 1 2 2 3 4 5 6 7 8 8 9
6 6 5 4 3 1 1 2 4 5 5 5 5 4 1 -1 -2 -3 -4 -5 -6 -6 -5 -4 -4 -3 -3 -3 -2 -2 -2 -2 -2 -1 -1 -1 0 1 2 3 4 4 5 6 7 8 9 9 10
6 6 5 4 3 2 2 3 5 5 6 5 4 3 1 -1 -2 -3 -4 -5 -5 -6 -6 -5 -4 -3 -2 -2 -2 -2 -2 -1 -1 -1 -0 1 2 3 3 4 5 6 7 7 8 9 10 10 11
6 6 5 4 3 3 3 4 5 6 6 5 4 3 1 -1 -2 -3 -3 -4 -5 -5 -5 -5 -4 -3 -2 -2 -2 -2 -2 -1 -1 -0 1 3 4 4 4 5 6 7 8 8 9 10 10 11 11
5 5 5 4 4 3 3 4 5 5 5 5 4 3 1 -0 -1 -2 -3 -4 -4 -5 -5 -5 -4 -3 -2 -2 -2 -2 -1 -1 -1 1 3 4 4 5 5 6 8 9 9 10 11 11 11 11 11
5 5 5 5 4 4 4 4 4 5 5 5 4 4 2 0 -1 -2 -3 -3 -4 -4 -4 -4 -3 -3 -2 -2 -1 -1 -1 -0 1 2 3 4 4 5 6 7 9 10 10 11 11 11 11 10 10
4 4 4 4 5 5 5 5 5 5 4 4 4 4 3 1 -0 -1 -2 -3 -3 -4 -4 -3 -3 -2 -2 -2 -1 -1 0 1 2 3 4 4 5 6 7 8 9 10 10 11 11 10 10 10 9
4 4 4 4 4 5 5 5 5 5 4 4 5 5 5 3 1 -0 -1 -2 -3 -3 -3 -3 -2 -2 -2 -2 -1 -1 1 2 3 4 5 5 6 6 7 9 9 10 10 10 10 10 10 10 10
3 4 4 4 4 4 5 5 5 4 4 4 4 5 5 4 3 2 0 -1 -2 -3 -2 -2 -2 -1 -1 -1 -1 -0 1 3 4 5 6 6 7 7 8 9 10 10 10 10 10 10 10 10 10
4 4 4 4 4 4 4 4 4 4 4 4 4 4 4 4 4 3 2 -0 -2 -2 -2 -1 -1 -1 -1 -1 -1 0 2 4 5 6 6 7 7 8 8 9 10 10 11 11 11 10 10 10 10
3 3 3 3 3 3 3 4 4 3 3 3 3 3 4 4 4 4 3 1 -1 -2 -1 -1 -0 -1 -1 -1 -1 1 3 4 6 7 7 7 8 8 9 9 10 10 11 11 11 10 10 10 10
3 3 3 2 2 2 3 3 3 3 3 3 3 3 3 4 4 3 3 1 -0 -1 -1 -0 0 -0 -1 -1 -0 1 3 5 6 7 7 8 8 9 9 10 10 11 11 11 11 10 10 10 10
2 2 2 2 1 2 2 3 3 3 3 3 3 3 3 3 3 3 2 1 0 -1 -0 0 1 1 -0 -1 -1 1 2 4 6 7 8 8 8 9 9 10 10 11 11 11 11 10 10 10 10
2 2 2 2 1 1 2 3 3 3 3 3 3 3 3 3 3 3 2 1 0 -0 0 1 1 1 0 -0 -1 -0 0 3 6 7 8 8 9 9 9 10 10 11 11 11 10 10 10 11 11
2 2 2 1 0 0 1 2 3 3 3 3 3 3 3 3 3 3 3 2 1 -0 0 1 2 2 1 -0 -1 -1 0 2 5 7 7 8 9 9 10 10 10 11 11 11 10 10 11 11 11
2 2 2 1 0 0 1 2 3 3 3 3 3 3 3 3 3 3 3 2 1 -0 -0 1 2 2 2 0 -0 -0 1 2 3 5 6 7 9 10 10 10 11 11 11 11 11 11 11 11 11
2 2 1 1 0 -0 0 1 2 3 3 3 3 3 3 3 3 3 3 2 1 0 -0 1 2 3 2 1 1 0 0 0 1 2 4 6 9 10 11 11 11 12 12 12 11 12 12 12 12
1 1 1 0 -0 0 1 1 2 2 3 3 3 3 3 3 3 3 2 2 2 0 -0 0 2 3 3 2 1 1 -0 -0 0 2 3 5 8 10 11 11 12 12 12 12 12 13 13 13 13
1 1 0 -0 -0 1 1 1 1 2 3 2 2 2 3 3 3 3 2 2 2 1 -0 0 1 2 2 2 2 1 1 0 1 1 2 3 6 9 11 12 12 13 13 13 13 14 14 14 13
1 0 -0 -1 -0 1 2 1 1 2 2 2 2 2 3 3 3 3 2 2 2 1 -0 -0 0 1 2 2 2 2 2 2 2 2 2 2 4 7 10 12 13 13 14 14 14 14 14 14 14
0 0 -0 -1 -1 0 1 1 1 2 2 2 2 2 3 3 3 3 2 2 1 0 -0 -0 0 1 1 1 1 2 3 3 3 3 3 4 5 8 10 11 13 14 14 14 14 14 14 14 14
-0 -0 -0 -1 -1 -1 -0 1 1 2 2 2 2 3 3 3 3 3 2 1 1 0 0 0 1 1 1 1 1 2 3 4 5 5 5 5 7 8 10 11 13 14 14 14 14 14 14 14 15
-0 -0 -0 -1 -1 -1 -0 0 1 1 1 2 2 3 3 3 3 3 2 1 1 1 1 1 2 2 2 2 2 3 4 5 6 7 6 7 8 9 9 11 12 13 14 14 13 13 14 14 14
0 0 -0 -1 -1 -1 -1 -0 0 -0 -1 0 2 3 3 3 3 3 3 2 2 1 1 2 2 3 3 3 3 4 4 5 7 7 7 8 9 9 10 10 12 13 14 14 14 14 14 13 12
1 1 1 0 -0 -0 -1 -1 -0 -1 -1 -0 1 2 3 3 3 3 3 3 2 2 2 2 3 3 4 4 4 4 5 5 6 7 8 8 9 10 10 10 11 13 14 15 15 14 14 12 10